Simultaneous Nadir Overpasses (SNOs) Predictions

Prediction of SNOs between AQUA and METOP-C Satellite Orbit:

Table of predicted SNOs for the next 14.0 days since TLE Epoch: 7/29/2023
Index Date (AQUA) Time (AQUA) Lat,Lon (AQUA) SZA (AQUA ) Date (METOP-C) Time (METOP-C) Lat,Lon (METOP-C) SZA (METOP-C ) Distance(km) Time Diff (sec)
1 07/30/2023 22:10:12 74.61,-156.41 56.21 07/30/2023 22:09:26 74.60,-156.47 56.21 1.99 46
2 07/30/2023 22:59:37 -74.68, 11.07 123.71 07/30/2023 23:00:06 -74.70, 11.12 123.70 2.50 29
3 08/02/2023 15:13:02 -74.13, 129.04 123.63 08/02/2023 15:11:55 -74.06, 126.57 123.61 75.78 67
4 08/02/2023 16:02:37 74.64, -64.56 56.93 08/02/2023 16:02:23 74.62, -64.65 56.92 3.25 14
5 08/02/2023 16:52:02 -74.71, 102.93 123.00 08/02/2023 16:53:03 -74.72, 102.93 122.99 1.06 61
6 08/05/2023 09:05:34 -74.61,-140.20 122.40 08/05/2023 09:04:40 -74.61,-140.27 122.39 2.18 54
7 08/05/2023 09:55:00 74.67, 27.30 57.68 08/05/2023 09:55:18 74.69, 27.28 57.70 1.87 18
8 08/08/2023 02:57:58 -74.68, -48.44 121.56 08/08/2023 02:57:36 -74.66, -48.37 121.58 3.17 22
9 08/08/2023 03:47:23 74.70, 119.17 58.47 08/08/2023 03:48:15 74.70, 119.06 58.46 2.98 52
10 08/10/2023 20:00:55 74.65,-124.06 59.18 08/10/2023 19:59:52 74.63,-124.03 59.17 2.58 63
11 08/10/2023 20:50:20 -74.70, 43.45 120.76 08/10/2023 20:50:32 -74.71, 43.51 120.75 1.80 12



Historial Predications of SNOs between AQUA and METOP-C
